User: anonymous   Login
Location: Unspecified
(0.0000°N, 0.0000°E)
Time: 19:02:14
(UTC+00:00)
Language:

USA 270 - Orbit

View from above orbital plane
View from above orbital plane
View from above satellite
View from above satellite

Ground track
Ground track

The orbit data is extracted from the following two-line orbital elements,

1 41744U 16052A   19119.07783043 0.00000000  00000-0  00000-0 0    00
2 41744   0.0570 109.5225 0006980 109.4650 250.5350  1.00270029    07
Epoch (UTC): 29 April 2019 01:52:04
Eccentricity: 0.0006980
inclination: 0.0570°
perigee height: 35757 km
apogee height: 35816 km
right ascension of ascending node: 109.5225°
argument of perigee: 109.4650°
revolutions per day: 1.00270029
mean anomaly at epoch: 250.5350°
orbit number at epoch: 0

The dashed part of the orbit path shows where the satellite is in the earth's shadow,  

DLR